sat.trackr.live / text

‹ back to catalog

RAY 1.0

NORAD 62627 · 2025-009U

PAYLOAD ACTIVE UNKNOWN

§ Identity

Operator
Country
US
Launch date
2025-01-14
Launch site
AFWTR
Launch vehicle
Mass (kg)
RCS (m²)

External: N2YO · Heavens-Above · Gunter

§ Orbital elements

Epoch: 2026-05-25T04:29:47.967936Z

Period
94.70 min
Inclination
97.3989°
Eccentricity
0.0008678
Mean motion
15.20576642 rev/d
Perigee alt
498.1 km
Apogee alt
510.1 km
Semi-major
6,882.2 km
B*
1.3057e-4
RAAN
223.9308°
Arg perigee
7.8093°
Mean anomaly
352.3276°
Rev number
7,518

§ Raw data

RAY 1.01 62627U 25009U   26145.18736074  .00002793  00000+0  13057-3 0  99922 62627  97.3989 223.9308 0008678   7.8093 352.3276 15.20576642 75180

JSON: /api/v1/satellites/62627 · /tle

For live sub-satellite position, see the globe view (requires WebGL).

§ Visibility from observer

Set your observer location to see the next 7 days of passes ≥ 10°. The values pass through the URL so the page stays shareable.

No JS? Fill the form by hand. The geolocation button needs JavaScript.

§ Radio — SatNOGS DB

ModeDescriptionDownlinkUplink
FM Mode S - Transmitter 0.002 MHz

1 transmitter · refreshed weekly from db.satnogs.org